Wetterdaten: Samstag, 19.05.2012
Datum Zeit Temperatur Luftfeuchte Regen Wind Richtung Richtung Taupunkt Windchill Windben
19.05.2012 00:00 8,8 C 79 % 0,0 l/m 0,0 km/h (0 Bft) O 90 5,4 C 9,0 C 0,0 km/h (0 Bft)
19.05.2012 00:05 8,8 C 79 % 0,0 l/m 0,0 km/h (0 Bft) O 90 5,4 C 8,9 C 0,0 km/h (0 Bft)
19.05.2012 00:10 9,0 C 79 % 0,0 l/m 0,0 km/h (0 Bft) NO 45 5,6 C 9,0 C 0,0 km/h (0 Bft)
19.05.2012 00:15 9,3 C 79 % 0,0 l/m 0,0 km/h (0 Bft) N-NO 22 5,8 C 9,1 C 0,0 km/h (0 Bft)
19.05.2012 00:20 9,4 C 79 % 0,0 l/m 0,0 km/h (0 Bft) SO 135 5,9 C 9,3 C 0,0 km/h (0 Bft)
19.05.2012 00:25 9,4 C 78 % 0,0 l/m 0,2 km/h (0 Bft) O-SO 112 5,8 C 9,4 C 0,0 km/h (0 Bft)
19.05.2012 00:30 9,5 C 78 % 0,0 l/m 0,2 km/h (0 Bft) S-SO 157 5,9 C 9,6 C 0,0 km/h (0 Bft)
19.05.2012 00:35 9,6 C 78 % 0,0 l/m 0,3 km/h (0 Bft) O-NO 67 6,0 C 9,7 C 2,6 km/h (1 Bft)
19.05.2012 00:40 9,7 C 77 % 0,0 l/m 0,3 km/h (0 Bft) N-NO 22 5,9 C 9,7 C 0,0 km/h (0 Bft)
19.05.2012 00:45 9,5 C 77 % 0,0 l/m 0,5 km/h (0 Bft) NO 45 5,7 C 9,7 C 2,3 km/h (1 Bft)
19.05.2012 00:50 9,0 C 77 % 0,0 l/m 0,5 km/h (0 Bft) SO 135 5,2 C 9,4 C 0,0 km/h (0 Bft)
19.05.2012 00:55 8,9 C 77 % 0,0 l/m 1,1 km/h (1 Bft) O-SO 112 5,1 C 9,3 C 6,1 km/h (2 Bft)
19.05.2012 01:00 8,7 C 78 % 0,0 l/m 1,4 km/h (1 Bft) O-SO 112 5,1 C 9,1 C 0,0 km/h (0 Bft)
19.05.2012 01:05 8,5 C 78 % 0,0 l/m 0,8 km/h (0 Bft) N-NO 22 4,9 C 8,8 C 0,0 km/h (0 Bft)
19.05.2012 01:10 8,0 C 78 % 0,0 l/m 0,0 km/h (0 Bft) NO 45 4,4 C 8,3 C 0,0 km/h (0 Bft)
19.05.2012 01:15 7,7 C 79 % 0,0 l/m 0,0 km/h (0 Bft) NO 45 4,3 C 8,0 C 0,0 km/h (0 Bft)
19.05.2012 01:20 7,3 C 79 % 0,0 l/m 0,0 km/h (0 Bft) N-NO 22 3,9 C 7,6 C 0,0 km/h (0 Bft)
19.05.2012 01:25 7,7 C 80 % 0,0 l/m 0,2 km/h (0 Bft) N-NO 22 4,5 C 7,5 C 0,0 km/h (0 Bft)
19.05.2012 01:30 8,0 C 80 % 0,0 l/m 0,2 km/h (0 Bft) NO 45 4,8 C 7,5 C 0,0 km/h (0 Bft)
19.05.2012 01:35 7,6 C 80 % 0,0 l/m 0,2 km/h (0 Bft) NO 45 4,4 C 7,4 C 1,8 km/h (1 Bft)
19.05.2012 01:40 7,8 C 81 % 0,0 l/m 0,3 km/h (0 Bft) N-NO 22 4,7 C 7,2 C 0,0 km/h (0 Bft)
19.05.2012 01:45 7,7 C 81 % 0,0 l/m 0,5 km/h (0 Bft) N-NO 22 4,7 C 7,3 C 0,0 km/h (0 Bft)
19.05.2012 01:50 7,3 C 81 % 0,0 l/m 0,3 km/h (0 Bft) S-SW 202 4,3 C 7,2 C 0,0 km/h (0 Bft)
19.05.2012 01:55 7,1 C 82 % 0,0 l/m 0,2 km/h (0 Bft) S-SW 202 4,2 C 7,0 C 0,0 km/h (0 Bft)
19.05.2012 02:00 6,9 C 82 % 0,0 l/m 0,0 km/h (0 Bft) SO 135 4,0 C 6,9 C 0,0 km/h (0 Bft)
19.05.2012 02:05 6,8 C 82 % 0,0 l/m 0,0 km/h (0 Bft) S-SW 202 3,9 C 6,7 C 0,0 km/h (0 Bft)
19.05.2012 02:10 7,1 C 84 % 0,0 l/m 0,2 km/h (0 Bft) N 360 4,6 C 6,7 C 0,0 km/h (0 Bft)
19.05.2012 02:16 6,9 C 84 % 0,0 l/m 0,0 km/h (0 Bft) S 180 4,4 C 6,8 C 0,0 km/h (0 Bft)
19.05.2012 02:20 6,9 C 84 % 0,0 l/m 0,0 km/h (0 Bft) S 180 4,4 C 6,8 C 0,0 km/h (0 Bft)
19.05.2012 02:25 7,2 C 85 % 0,0 l/m 0,0 km/h (0 Bft) S 180 4,9 C 6,9 C 0,0 km/h (0 Bft)
19.05.2012 02:30 7,2 C 84 % 0,0 l/m 0,0 km/h (0 Bft) S 180 4,7 C 7,0 C 0,0 km/h (0 Bft)
19.05.2012 02:35 7,4 C 84 % 0,0 l/m 0,0 km/h (0 Bft) N-NO 22 4,9 C 7,0 C 0,0 km/h (0 Bft)
19.05.2012 02:40 8,1 C 84 % 0,0 l/m 0,0 km/h (0 Bft) N-NO 22 5,6 C 7,3 C 0,0 km/h (0 Bft)
19.05.2012 02:45 8,3 C 84 % 0,0 l/m 0,0 km/h (0 Bft) N-NO 22 5,8 C 7,5 C 0,0 km/h (0 Bft)
19.05.2012 02:50 8,2 C 83 % 0,0 l/m 0,0 km/h (0 Bft) NO 45 5,5 C 7,8 C 0,0 km/h (0 Bft)
19.05.2012 02:55 8,2 C 83 % 0,0 l/m 0,2 km/h (0 Bft) N 360 5,5 C 7,8 C 4,0 km/h (1 Bft)
19.05.2012 03:00 8,0 C 82 % 0,0 l/m 0,5 km/h (0 Bft) W 270 5,1 C 7,9 C 0,0 km/h (0 Bft)
19.05.2012 03:05 7,6 C 82 % 0,0 l/m 0,5 km/h (0 Bft) W 270 4,7 C 7,8 C 0,0 km/h (0 Bft)
19.05.2012 03:10 7,7 C 82 % 0,0 l/m 0,3 km/h (0 Bft) N-NO 22 4,8 C 7,6 C 0,0 km/h (0 Bft)
19.05.2012 03:15 7,6 C 82 % 0,0 l/m 0,3 km/h (0 Bft) SO 135 4,7 C 7,6 C 0,0 km/h (0 Bft)
19.05.2012 03:20 7,6 C 82 % 0,0 l/m 0,0 km/h (0 Bft) N-NO 22 4,7 C 7,6 C 0,0 km/h (0 Bft)
19.05.2012 03:25 7,7 C 83 % 0,0 l/m 0,0 km/h (0 Bft) N-NW 337 5,0 C 7,5 C 0,0 km/h (0 Bft)
19.05.2012 03:30 7,6 C 83 % 0,0 l/m 0,0 km/h (0 Bft) W-SW 247 4,9 C 7,6 C 0,0 km/h (0 Bft)
19.05.2012 03:35 7,5 C 83 % 0,0 l/m 0,0 km/h (0 Bft) NO 45 4,8 C 7,5 C 0,0 km/h (0 Bft)
19.05.2012 03:40 7,5 C 83 % 0,0 l/m 0,3 km/h (0 Bft) NO 45 4,8 C 7,6 C 0,0 km/h (0 Bft)
19.05.2012 03:45 7,8 C 84 % 0,0 l/m 0,8 km/h (0 Bft) N 360 5,3 C 7,6 C 2,4 km/h (1 Bft)
19.05.2012 03:50 7,6 C 83 % 0,0 l/m 0,5 km/h (0 Bft) S 180 4,9 C 7,6 C 0,0 km/h (0 Bft)
19.05.2012 03:55 7,5 C 83 % 0,0 l/m 0,3 km/h (0 Bft) N 360 4,8 C 7,5 C 2,1 km/h (1 Bft)
19.05.2012 04:00 7,6 C 83 % 0,0 l/m 0,6 km/h (0 Bft) NO 45 4,9 C 7,4 C 0,0 km/h (0 Bft)
19.05.2012 04:05 7,5 C 83 % 0,0 l/m 1,0 km/h (0 Bft) NO 45 4,8 C 7,4 C 4,0 km/h (1 Bft)
19.05.2012 04:10 7,6 C 83 % 0,0 l/m 0,3 km/h (0 Bft) O-SO 112 4,9 C 7,6 C 0,0 km/h (0 Bft)
19.05.2012 04:15 7,7 C 83 % 0,0 l/m 0,3 km/h (0 Bft) N 360 5,0 C 7,8 C 0,0 km/h (0 Bft)
19.05.2012 04:20 7,9 C 83 % 0,0 l/m 0,2 km/h (0 Bft) N-NO 22 5,2 C 7,9 C 0,0 km/h (0 Bft)
19.05.2012 04:25 7,7 C 82 % 0,0 l/m 0,2 km/h (0 Bft) O-SO 112 4,8 C 8,0 C 0,0 km/h (0 Bft)
19.05.2012 04:30 7,8 C 82 % 0,0 l/m 0,0 km/h (0 Bft) SO 135 4,9 C 8,0 C 0,0 km/h (0 Bft)
19.05.2012 04:35 7,7 C 82 % 0,0 l/m 0,0 km/h (0 Bft) S-SW 202 4,8 C 8,0 C 0,0 km/h (0 Bft)
19.05.2012 04:40 7,7 C 82 % 0,0 l/m 0,0 km/h (0 Bft) N-NW 337 4,8 C 7,9 C 0,0 km/h (0 Bft)
19.05.2012 04:45 7,7 C 82 % 0,0 l/m 0,0 km/h (0 Bft) O-NO 67 4,8 C 7,8 C 0,0 km/h (0 Bft)
19.05.2012 04:50 7,7 C 82 % 0,0 l/m 0,0 km/h (0 Bft) O 90 4,8 C 7,6 C 0,0 km/h (0 Bft)
19.05.2012 04:55 7,6 C 82 % 0,0 l/m 0,0 km/h (0 Bft) N 360 4,7 C 7,5 C 0,0 km/h (0 Bft)
19.05.2012 05:00 7,4 C 82 % 0,0 l/m 0,0 km/h (0 Bft) N-NO 22 4,5 C 7,5 C 0,0 km/h (0 Bft)
19.05.2012 05:05 7,4 C 83 % 0,0 l/m 0,0 km/h (0 Bft) N 360 4,7 C 7,3 C 0,0 km/h (0 Bft)
19.05.2012 05:10 7,4 C 83 % 0,0 l/m 0,0 km/h (0 Bft) NO 45 4,7 C 7,2 C 0,0 km/h (0 Bft)
19.05.2012 05:15 7,1 C 83 % 0,0 l/m 0,0 km/h (0 Bft) N-NW 337 4,4 C 7,0 C 0,0 km/h (0 Bft)
19.05.2012 05:20 7,0 C 84 % 0,0 l/m 0,2 km/h (0 Bft) NO 45 4,5 C 6,8 C 0,0 km/h (0 Bft)
19.05.2012 05:25 6,9 C 85 % 0,0 l/m 0,2 km/h (0 Bft) NW 315 4,6 C 6,7 C 0,0 km/h (0 Bft)
19.05.2012 05:30 7,1 C 85 % 0,0 l/m 0,0 km/h (0 Bft) N-NO 22 4,8 C 6,6 C 0,0 km/h (0 Bft)
19.05.2012 05:35 7,1 C 85 % 0,0 l/m 0,0 km/h (0 Bft) NO 45 4,8 C 6,6 C 0,0 km/h (0 Bft)
19.05.2012 05:40 6,5 C 84 % 0,0 l/m 0,3 km/h (0 Bft) N-NO 22 4,0 C 6,4 C 0,0 km/h (0 Bft)
19.05.2012 05:45 6,5 C 85 % 0,0 l/m 0,3 km/h (0 Bft) NO 45 4,2 C 6,3 C 0,0 km/h (0 Bft)
19.05.2012 05:50 6,0 C 84 % 0,0 l/m 0,0 km/h (0 Bft) W 270 3,5 C 6,1 C 0,0 km/h (0 Bft)
19.05.2012 05:55 5,8 C 85 % 0,0 l/m 0,0 km/h (0 Bft) W 270 3,5 C 5,9 C 0,0 km/h (0 Bft)
19.05.2012 06:00 5,7 C 86 % 0,0 l/m 0,0 km/h (0 Bft) NW 315 3,5 C 6,0 C 0,0 km/h (0 Bft)
19.05.2012 06:05 5,7 C 86 % 0,0 l/m 0,0 km/h (0 Bft) NW 315 3,5 C 6,3 C 0,0 km/h (0 Bft)
19.05.2012 06:10 5,7 C 86 % 0,0 l/m 0,0 km/h (0 Bft) W-SW 247 3,5 C 6,6 C 0,0 km/h (0 Bft)
19.05.2012 06:15 5,7 C 86 % 0,0 l/m 0,0 km/h (0 Bft) O-SO 112 3,5 C 6,5 C 0,0 km/h (0 Bft)
19.05.2012 06:20 5,7 C 87 % 0,0 l/m 0,0 km/h (0 Bft) W-NW 292 3,7 C 6,1 C 0,0 km/h (0 Bft)
19.05.2012 06:25 5,7 C 87 % 0,0 l/m 0,0 km/h (0 Bft) N-NW 337 3,7 C 6,1 C 0,0 km/h (0 Bft)
19.05.2012 06:30 6,0 C 88 % 0,0 l/m 0,0 km/h (0 Bft) W-NW 292 4,2 C 6,1 C 0,0 km/h (0 Bft)
19.05.2012 06:35 6,0 C 87 % 0,0 l/m 0,0 km/h (0 Bft) N-NO 22 4,0 C 6,6 C 0,0 km/h (0 Bft)
19.05.2012 06:40 6,2 C 88 % 0,0 l/m 0,0 km/h (0 Bft) W-NW 292 4,4 C 7,0 C 0,0 km/h (0 Bft)
19.05.2012 06:45 8,2 C 87 % 0,0 l/m 0,0 km/h (0 Bft) SO 135 6,2 C 7,3 C 0,0 km/h (0 Bft)
19.05.2012 06:50 8,3 C 86 % 0,0 l/m 0,0 km/h (0 Bft) NO 45 6,1 C 8,9 C 0,0 km/h (0 Bft)
19.05.2012 06:55 8,4 C 86 % 0,0 l/m 0,0 km/h (0 Bft) NO 45 6,2 C 8,9 C 0,0 km/h (0 Bft)
19.05.2012 07:00 11,0 C 81 % 0,0 l/m 0,0 km/h (0 Bft) N 360 7,9 C 10,9 C 0,0 km/h (0 Bft)
19.05.2012 07:05 12,2 C 79 % 0,0 l/m 0,0 km/h (0 Bft) SW 225 8,7 C 12,5 C 0,0 km/h (0 Bft)
19.05.2012 07:10 11,7 C 76 % 0,0 l/m 0,0 km/h (0 Bft) N 360 7,6 C 13,6 C 0,0 km/h (0 Bft)
19.05.2012 07:15 12,5 C 73 % 0,0 l/m 0,0 km/h (0 Bft) N-NO 22 7,6 C 13,9 C 0,0 km/h (0 Bft)
19.05.2012 07:20 13,3 C 73 % 0,0 l/m 0,0 km/h (0 Bft) S-SW 202 7,5 C 15,0 C 0,0 km/h (0 Bft)
19.05.2012 07:25 14,6 C 73 % 0,0 l/m 0,0 km/h (0 Bft) W-NW 292 8,5 C 15,9 C 0,0 km/h (0 Bft)
19.05.2012 07:30 15,9 C 73 % 0,0 l/m 0,0 km/h (0 Bft) SW 225 9,6 C 17,3 C 0,0 km/h (0 Bft)
19.05.2012 07:35 16,8 C 73 % 0,0 l/m 0,0 km/h (0 Bft) O 90 10,0 C 18,1 C 0,0 km/h (0 Bft)
19.05.2012 07:40 16,6 C 73 % 0,0 l/m 0,0 km/h (0 Bft) W-SW 247 8,6 C 18,6 C 0,0 km/h (0 Bft)
19.05.2012 07:45 15,7 C 73 % 0,0 l/m 0,0 km/h (0 Bft) SO 135 6,9 C 18,5 C 0,0 km/h (0 Bft)
19.05.2012 07:50 16,3 C 73 % 0,0 l/m 0,0 km/h (0 Bft) NO 45 8,0 C 19,0 C 0,0 km/h (0 Bft)
19.05.2012 07:55 16,8 C 73 % 0,0 l/m 0,0 km/h (0 Bft) O 90 8,7 C 19,4 C 0,0 km/h (0 Bft)
19.05.2012 08:00 18,0 C 73 % 0,0 l/m 0,0 km/h (0 Bft) W 270 9,4 C 20,2 C 0,0 km/h (0 Bft)
19.05.2012 08:05 17,6 C 73 % 0,0 l/m 0,0 km/h (0 Bft) N-NW 337 7,6 C 20,8 C 0,0 km/h (0 Bft)
19.05.2012 08:10 17,7 C 73 % 0,0 l/m 0,0 km/h (0 Bft) N-NW 337 8,3 C 20,7 C 0,0 km/h (0 Bft)
19.05.2012 08:15 18,2 C 73 % 0,0 l/m 0,0 km/h (0 Bft) W-SW 247 9,0 C 21,0 C 0,0 km/h (0 Bft)
19.05.2012 08:20 18,9 C 73 % 0,0 l/m 0,0 km/h (0 Bft) W 270 7,9 C 21,8 C 0,0 km/h (0 Bft)
19.05.2012 08:25 19,7 C 73 % 0,0 l/m 0,3 km/h (0 Bft) S-SW 202 8,7 C 21,9 C 2,1 km/h (1 Bft)
19.05.2012 08:30 19,1 C 73 % 0,0 l/m 1,4 km/h (1 Bft) NW 315 8,1 C 21,6 C 2,9 km/h (1 Bft)
19.05.2012 08:35 19,4 C 73 % 0,0 l/m 2,1 km/h (1 Bft) NW 315 8,4 C 21,2 C 3,7 km/h (1 Bft)
19.05.2012 08:40 19,2 C 73 % 0,0 l/m 2,4 km/h (1 Bft) W-SW 247 8,5 C 20,9 C 2,9 km/h (1 Bft)
19.05.2012 08:45 19,0 C 73 % 0,0 l/m 2,4 km/h (1 Bft) W-SW 247 9,0 C 21,0 C 7,1 km/h (2 Bft)
19.05.2012 08:50 18,6 C 73 % 0,0 l/m 2,6 km/h (1 Bft) W 270 8,7 C 21,1 C 3,9 km/h (1 Bft)
19.05.2012 08:55 18,7 C 73 % 0,0 l/m 3,7 km/h (1 Bft) NW 315 8,0 C 20,9 C 10,5 km/h (2 Bft)
19.05.2012 09:00 18,4 C 73 % 0,0 l/m 5,5 km/h (1 Bft) W-NW 292 8,3 C 20,3 C 8,5 km/h (2 Bft)
19.05.2012 09:05 18,2 C 73 % 0,0 l/m 5,8 km/h (2 Bft) W-NW 292 8,3 C 20,0 C 6,6 km/h (2 Bft)
19.05.2012 09:10 18,4 C 73 % 0,0 l/m 5,1 km/h (1 Bft) W-SW 247 8,1 C 20,1 C 6,3 km/h (2 Bft)
19.05.2012 09:15 18,4 C 73 % 0,0 l/m 4,5 km/h (1 Bft) W-SW 247 7,4 C 20,1 C 11,3 km/h (2 Bft)
19.05.2012 09:20 18,5 C 73 % 0,0 l/m 5,5 km/h (1 Bft) W-NW 292 7,2 C 20,3 C 10,9 km/h (2 Bft)
19.05.2012 09:25 18,3 C 73 % 0,0 l/m 6,3 km/h (2 Bft) W 270 7,1 C 20,0 C 12,7 km/h (3 Bft)
19.05.2012 09:30 18,4 C 73 % 0,0 l/m 6,8 km/h (2 Bft) W 270 7,4 C 19,9 C 10,9 km/h (2 Bft)
19.05.2012 09:35 18,3 C 73 % 0,0 l/m 6,1 km/h (2 Bft) W-SW 247 7,8 C 19,9 C 6,1 km/h (2 Bft)
19.05.2012 09:40 18,7 C 73 % 0,0 l/m 5,6 km/h (1 Bft) N-NW 337 8,0 C 20,3 C 4,5 km/h (1 Bft)
19.05.2012 09:45 18,9 C 73 % 0,0 l/m 5,1 km/h (1 Bft) N 360 8,2 C 20,7 C 8,4 km/h (2 Bft)
19.05.2012 09:50 19,1 C 73 % 0,0 l/m 5,0 km/h (1 Bft) SO 135 7,9 C 20,8 C 1,8 km/h (1 Bft)
19.05.2012 09:55 19,5 C 73 % 0,0 l/m 4,5 km/h (1 Bft) W-SW 247 9,1 C 21,4 C 4,3 km/h (1 Bft)
19.05.2012 10:00 19,9 C 73 % 0,0 l/m 3,4 km/h (1 Bft) S 180 8,5 C 21,9 C 5,1 km/h (1 Bft)
19.05.2012 10:05 20,2 C 73 % 0,0 l/m 3,4 km/h (1 Bft) W-NW 292 8,6 C 22,3 C 6,9 km/h (2 Bft)
19.05.2012 10:10 20,0 C 73 % 0,0 l/m 4,5 km/h (1 Bft) N-NW 337 8,2 C 22,0 C 11,1 km/h (2 Bft)
19.05.2012 10:15 19,9 C 73 % 0,0 l/m 5,8 km/h (2 Bft) N-NW 337 7,6 C 21,5 C 8,2 km/h (2 Bft)
19.05.2012 10:20 20,3 C 73 % 0,0 l/m 5,0 km/h (1 Bft) W-SW 247 7,8 C 21,3 C 5,6 km/h (1 Bft)
19.05.2012 10:25 20,4 C 73 % 0,0 l/m 4,5 km/h (1 Bft) W 270 8,1 C 21,4 C 6,1 km/h (2 Bft)
19.05.2012 10:30 20,3 C 73 % 0,0 l/m 6,0 km/h (2 Bft) W-NW 292 8,0 C 21,1 C 14,2 km/h (3 Bft)
19.05.2012 10:35 19,9 C 73 % 0,0 l/m 6,4 km/h (2 Bft) N-NW 337 7,6 C 20,7 C 4,5 km/h (1 Bft)
19.05.2012 10:40 20,7 C 73 % 0,0 l/m 5,6 km/h (1 Bft) NW 315 8,3 C 21,0 C 9,0 km/h (2 Bft)
19.05.2012 10:45 20,1 C 73 % 0,0 l/m 4,5 km/h (1 Bft) O-SO 112 7,8 C 21,1 C 7,2 km/h (2 Bft)
19.05.2012 10:50 20,8 C 73 % 0,0 l/m 6,1 km/h (2 Bft) S 180 9,1 C 20,9 C 4,7 km/h (1 Bft)
19.05.2012 10:55 20,4 C 73 % 0,0 l/m 7,2 km/h (2 Bft) W-SW 247 8,4 C 20,5 C 11,3 km/h (2 Bft)
19.05.2012 11:00 20,2 C 73 % 0,0 l/m 6,6 km/h (2 Bft) W-NW 292 8,2 C 20,7 C 9,5 km/h (2 Bft)
19.05.2012 11:05 20,4 C 73 % 0,0 l/m 6,6 km/h (2 Bft) SO 135 8,7 C 20,6 C 10,1 km/h (2 Bft)
19.05.2012 11:10 20,4 C 73 % 0,0 l/m 6,6 km/h (2 Bft) SW 225 8,4 C 20,6 C 5,0 km/h (1 Bft)
19.05.2012 11:15 20,5 C 73 % 0,0 l/m 5,8 km/h (2 Bft) N-NW 337 8,5 C 21,0 C 8,2 km/h (2 Bft)
19.05.2012 11:20 20,2 C 73 % 0,0 l/m 6,0 km/h (2 Bft) N-NW 337 7,9 C 21,0 C 10,1 km/h (2 Bft)
19.05.2012 11:25 20,1 C 73 % 0,0 l/m 6,0 km/h (2 Bft) W-SW 247 8,4 C 21,2 C 6,6 km/h (2 Bft)
19.05.2012 11:30 20,4 C 73 % 0,0 l/m 6,8 km/h (2 Bft) NW 315 7,7 C 21,1 C 8,7 km/h (2 Bft)
19.05.2012 11:35 20,8 C 73 % 0,0 l/m 6,9 km/h (2 Bft) W 270 8,4 C 20,9 C 16,3 km/h (3 Bft)
19.05.2012 11:40 20,8 C 73 % 0,0 l/m 7,6 km/h (2 Bft) W 270 8,8 C 20,3 C 8,0 km/h (2 Bft)
19.05.2012 11:45 21,4 C 73 % 0,0 l/m 7,6 km/h (2 Bft) W 270 8,6 C 20,4 C 5,0 km/h (1 Bft)
19.05.2012 11:50 21,7 C 73 % 0,0 l/m 5,6 km/h (1 Bft) W 270 8,9 C 21,3 C 7,6 km/h (2 Bft)
19.05.2012 11:55 21,5 C 73 % 0,0 l/m 6,1 km/h (2 Bft) W 270 8,4 C 21,1 C 6,4 km/h (2 Bft)
19.05.2012 12:00 21,9 C 73 % 0,0 l/m 5,8 km/h (2 Bft) W 270 9,1 C 21,2 C 9,0 km/h (2 Bft)
19.05.2012 12:05 21,6 C 73 % 0,0 l/m 6,0 km/h (2 Bft) W-NW 292 8,8 C 21,0 C 18,2 km/h (3 Bft)
19.05.2012 12:10 21,9 C 73 % 0,0 l/m 7,2 km/h (2 Bft) W-NW 292 8,4 C 20,5 C 9,3 km/h (2 Bft)
19.05.2012 12:15 22,3 C 73 % 0,0 l/m 6,8 km/h (2 Bft) W-SW 247 9,1 C 20,7 C 10,3 km/h (2 Bft)
19.05.2012 12:20 21,6 C 73 % 0,0 l/m 6,9 km/h (2 Bft) W-NW 292 8,1 C 20,5 C 7,7 km/h (2 Bft)
19.05.2012 12:25 21,8 C 73 % 0,0 l/m 7,9 km/h (2 Bft) S-SW 202 8,7 C 20,0 C 10,1 km/h (2 Bft)
19.05.2012 12:30 21,7 C 73 % 0,0 l/m 8,2 km/h (2 Bft) W-SW 247 8,9 C 19,8 C 13,0 km/h (3 Bft)
19.05.2012 12:35 21,9 C 73 % 0,0 l/m 6,9 km/h (2 Bft) W-NW 292 9,1 C 20,3 C 6,1 km/h (2 Bft)
19.05.2012 12:40 22,0 C 73 % 0,0 l/m 6,4 km/h (2 Bft) W-NW 292 8,5 C 20,6 C 5,0 km/h (1 Bft)
19.05.2012 12:45 22,2 C 73 % 0,0 l/m 6,6 km/h (2 Bft) W-SW 247 9,0 C 20,6 C 9,8 km/h (2 Bft)
19.05.2012 12:50 22,3 C 73 % 0,0 l/m 7,6 km/h (2 Bft) W-NW 292 9,1 C 20,1 C 16,4 km/h (3 Bft)
19.05.2012 12:55 22,2 C 73 % 0,0 l/m 7,9 km/h (2 Bft) W-SW 247 9,4 C 20,0 C 9,3 km/h (2 Bft)
19.05.2012 13:01 21,9 C 73 % 0,0 l/m 8,7 km/h (2 Bft) W 270 9,1 C 20,1 C 14,8 km/h (3 Bft)
19.05.2012 13:02 21,9 C 73 % 0,0 l/m 8,7 km/h (2 Bft) N 0 9,1 C 20,1 C 14,8 km/h (3 Bft)
19.05.2012 13:05 21,9 C 73 % 0,0 l/m 8,7 km/h (2 Bft) N 0 9,1 C 20,1 C 14,8 km/h (3 Bft)
19.05.2012 13:10 22,3 C 73 % 0,0 l/m 7,9 km/h (2 Bft) N 0 9,5 C 20,5 C 6,4 km/h (2 Bft)
19.05.2012 13:15 22,1 C 73 % 0,0 l/m 6,6 km/h (2 Bft) W 270 8,9 C 21,3 C 6,0 km/h (2 Bft)
19.05.2012 13:20 22,4 C 73 % 0,0 l/m 7,4 km/h (2 Bft) W-NW 292 9,5 C 21,1 C 10,8 km/h (2 Bft)
19.05.2012 13:21 22,3 C 73 % 0,0 l/m 7,9 km/h (2 Bft) N-NW 337 9,1 C 21,0 C 8,7 km/h (2 Bft)
19.05.2012 13:22 22,3 C 73 % 0,0 l/m 7,9 km/h (2 Bft) N-NW 337 9,1 C 21,0 C 8,7 km/h (2 Bft)
19.05.2012 13:23 22,3 C 73 % 0,0 l/m 7,9 km/h (2 Bft) N-NW 337 9,1 C 21,0 C 8,7 km/h (2 Bft)
19.05.2012 13:24 22,3 C 73 % 0,0 l/m 7,9 km/h (2 Bft) N-NW 337 9,1 C 21,0 C 8,7 km/h (2 Bft)
19.05.2012 13:29 22,8 C 43 % 0,0 l/m 6,0 km/h (2 Bft) N-NW 337 9,6 C 22,4 C 7,4 km/h (2 Bft)
19.05.2012 13:34 22,5 C 43 % 0,0 l/m 7,7 km/h (2 Bft) W 270 9,3 C 22,2 C 16,1 km/h (3 Bft)
19.05.2012 13:39 22,7 C 43 % 0,0 l/m 8,4 km/h (2 Bft) W 270 9,5 C 22,1 C 9,0 km/h (2 Bft)
19.05.2012 13:44 23,0 C 41 % 0,0 l/m 6,6 km/h (2 Bft) NW 315 9,0 C 23,0 C 9,3 km/h (2 Bft)
19.05.2012 13:49 23,0 C 42 % 0,0 l/m 5,6 km/h (1 Bft) S-SO 157 9,4 C 23,6 C 10,0 km/h (2 Bft)
19.05.2012 13:54 23,2 C 40 % 0,0 l/m 5,6 km/h (1 Bft) W 270 8,8 C 24,1 C 16,3 km/h (3 Bft)
19.05.2012 13:59 23,0 C 40 % 0,0 l/m 6,9 km/h (2 Bft) W 270 8,7 C 23,9 C 17,5 km/h (3 Bft)
19.05.2012 14:04 23,1 C 40 % 0,0 l/m 7,4 km/h (2 Bft) W-NW 292 8,8 C 23,7 C 9,5 km/h (2 Bft)
19.05.2012 14:09 23,0 C 40 % 0,0 l/m 7,2 km/h (2 Bft) W-SW 247 8,7 C 23,9 C 10,8 km/h (2 Bft)
19.05.2012 14:14 23,6 C 40 % 0,0 l/m 6,9 km/h (2 Bft) S 180 9,2 C 24,0 C 2,3 km/h (1 Bft)
19.05.2012 14:19 23,5 C 39 % 0,0 l/m 6,1 km/h (2 Bft) W-SW 247 8,7 C 24,4 C 6,3 km/h (2 Bft)
19.05.2012 14:24 23,4 C 39 % 0,0 l/m 4,7 km/h (1 Bft) N-NO 22 8,6 C 24,8 C 4,8 km/h (1 Bft)
19.05.2012 14:29 23,8 C 39 % 0,0 l/m 5,3 km/h (1 Bft) W 270 9,0 C 25,1 C 10,0 km/h (2 Bft)
19.05.2012 14:34 23,5 C 38 % 0,0 l/m 6,3 km/h (2 Bft) W 270 8,4 C 24,9 C 8,0 km/h (2 Bft)
19.05.2012 14:39 23,6 C 38 % 0,0 l/m 6,9 km/h (2 Bft) W-SW 247 8,4 C 24,7 C 7,2 km/h (2 Bft)
19.05.2012 14:44 22,9 C 41 % 0,0 l/m 6,1 km/h (2 Bft) N-NW 337 8,9 C 24,6 C 7,2 km/h (2 Bft)
19.05.2012 14:49 23,8 C 39 % 0,0 l/m 6,3 km/h (2 Bft) W 270 9,0 C 24,4 C 7,7 km/h (2 Bft)
19.05.2012 14:54 23,6 C 37 % 0,0 l/m 7,6 km/h (2 Bft) W-SW 247 8,0 C 24,3 C 7,9 km/h (2 Bft)
19.05.2012 14:59 22,5 C 42 % 0,0 l/m 7,7 km/h (2 Bft) W-NW 292 8,9 C 23,6 C 7,1 km/h (2 Bft)
19.05.2012 15:04 23,3 C 40 % 0,0 l/m 6,6 km/h (2 Bft) W-NW 292 8,9 C 23,5 C 5,1 km/h (1 Bft)
19.05.2012 15:09 23,6 C 40 % 0,0 l/m 6,0 km/h (2 Bft) O-SO 112 9,2 C 24,1 C 1,8 km/h (1 Bft)
19.05.2012 15:14 21,7 C 43 % 0,0 l/m 4,8 km/h (1 Bft) W-SW 247 8,6 C 23,8 C 10,5 km/h (2 Bft)
19.05.2012 15:19 21,4 C 44 % 0,0 l/m 4,7 km/h (1 Bft) W 270 8,6 C 23,0 C 9,7 km/h (2 Bft)
19.05.2012 15:24 22,6 C 44 % 0,0 l/m 5,0 km/h (1 Bft) W-NW 292 9,7 C 23,2 C 4,7 km/h (1 Bft)
19.05.2012 15:29 22,7 C 44 % 0,0 l/m 4,2 km/h (1 Bft) W-SW 247 9,8 C 23,6 C 5,3 km/h (1 Bft)
19.05.2012 15:34 23,5 C 41 % 0,0 l/m 5,1 km/h (1 Bft) S-SW 202 9,5 C 23,7 C 7,2 km/h (2 Bft)
19.05.2012 15:39 24,3 C 41 % 0,0 l/m 5,3 km/h (1 Bft) W 270 10,2 C 24,4 C 2,6 km/h (1 Bft)
19.05.2012 15:44 24,3 C 37 % 0,0 l/m 4,8 km/h (1 Bft) W-NW 292 8,7 C 25,3 C 4,0 km/h (1 Bft)
19.05.2012 15:49 23,9 C 38 % 0,0 l/m 5,1 km/h (1 Bft) S 180 8,7 C 25,6 C 3,9 km/h (1 Bft)
19.05.2012 15:54 24,1 C 38 % 0,0 l/m 5,5 km/h (1 Bft) W 270 8,9 C 26,0 C 6,6 km/h (2 Bft)
19.05.2012 15:59 24,3 C 38 % 0,0 l/m 5,3 km/h (1 Bft) N-NW 337 9,1 C 26,2 C 6,8 km/h (2 Bft)
19.05.2012 16:04 24,6 C 38 % 0,0 l/m 5,5 km/h (1 Bft) S 180 9,3 C 26,7 C 5,6 km/h (1 Bft)
19.05.2012 16:09 24,2 C 37 % 0,0 l/m 5,1 km/h (1 Bft) S-SW 202 8,6 C 27,0 C 5,5 km/h (1 Bft)
19.05.2012 16:14 23,8 C 37 % 0,0 l/m 4,8 km/h (1 Bft) W 270 8,2 C 27,2 C 5,0 km/h (1 Bft)
19.05.2012 16:19 23,7 C 38 % 0,0 l/m 4,7 km/h (1 Bft) W-NW 292 8,5 C 27,4 C 4,7 km/h (1 Bft)
19.05.2012 16:24 22,5 C 39 % 0,0 l/m 6,1 km/h (2 Bft) W-NW 292 7,8 C 26,0 C 12,2 km/h (2 Bft)
19.05.2012 16:29 22,1 C 41 % 0,0 l/m 6,0 km/h (2 Bft) W-SW 247 8,2 C 24,9 C 3,9 km/h (1 Bft)
19.05.2012 16:34 22,3 C 42 % 0,0 l/m 5,6 km/h (1 Bft) S-SW 202 8,8 C 23,9 C 3,9 km/h (1 Bft)
19.05.2012 16:39 22,5 C 42 % 0,0 l/m 4,5 km/h (1 Bft) W-SW 247 8,9 C 23,9 C 6,3 km/h (2 Bft)
19.05.2012 16:44 22,6 C 43 % 0,0 l/m 3,5 km/h (1 Bft) W 270 9,4 C 24,6 C 4,5 km/h (1 Bft)
19.05.2012 16:49 22,9 C 43 % 0,0 l/m 4,2 km/h (1 Bft) W 270 9,6 C 25,0 C 8,4 km/h (2 Bft)
19.05.2012 16:54 22,6 C 43 % 0,0 l/m 4,5 km/h (1 Bft) S-SW 202 9,4 C 25,9 C 5,3 km/h (1 Bft)
19.05.2012 16:59 22,4 C 43 % 0,0 l/m 4,7 km/h (1 Bft) W 270 9,2 C 25,4 C 4,7 km/h (1 Bft)
19.05.2012 17:04 23,2 C 41 % 0,0 l/m 4,2 km/h (1 Bft) W-NW 292 9,2 C 26,1 C 8,2 km/h (2 Bft)
19.05.2012 17:09 23,0 C 42 % 0,0 l/m 3,5 km/h (1 Bft) W-NW 292 9,4 C 26,8 C 5,3 km/h (1 Bft)
19.05.2012 17:14 22,7 C 42 % 0,0 l/m 5,1 km/h (1 Bft) W-SW 247 9,1 C 26,4 C 12,6 km/h (3 Bft)
19.05.2012 17:19 22,4 C 43 % 0,0 l/m 5,6 km/h (1 Bft) W 270 9,2 C 25,6 C 6,8 km/h (2 Bft)
19.05.2012 17:24 22,4 C 43 % 0,0 l/m 5,5 km/h (1 Bft) W-SW 247 9,2 C 24,4 C 6,8 km/h (2 Bft)
19.05.2012 17:29 22,3 C 44 % 0,0 l/m 4,7 km/h (1 Bft) N-NO 22 9,5 C 23,9 C 0,0 km/h (0 Bft)
19.05.2012 17:34 22,2 C 44 % 0,0 l/m 4,3 km/h (1 Bft) S 180 9,4 C 23,6 C 6,0 km/h (2 Bft)
19.05.2012 17:39 21,9 C 45 % 0,0 l/m 3,9 km/h (1 Bft) NW 315 9,4 C 23,4 C 8,2 km/h (2 Bft)
19.05.2012 17:44 21,7 C 47 % 0,0 l/m 2,9 km/h (1 Bft) W-SW 247 9,9 C 23,1 C 1,6 km/h (1 Bft)
19.05.2012 17:49 21,5 C 46 % 0,0 l/m 3,2 km/h (1 Bft) NW 315 9,4 C 23,0 C 9,0 km/h (2 Bft)
19.05.2012 17:54 21,4 C 47 % 0,0 l/m 3,9 km/h (1 Bft) S 180 9,6 C 22,5 C 3,7 km/h (1 Bft)
19.05.2012 17:59 21,5 C 47 % 0,0 l/m 3,7 km/h (1 Bft) W-SW 247 9,7 C 22,5 C 5,0 km/h (1 Bft)
19.05.2012 18:04 21,3 C 47 % 0,0 l/m 2,9 km/h (1 Bft) W-NW 292 9,5 C 22,6 C 2,3 km/h (1 Bft)
19.05.2012 18:09 21,1 C 47 % 0,0 l/m 3,1 km/h (1 Bft) S-SO 157 9,3 C 22,5 C 0,0 km/h (0 Bft)
19.05.2012 18:14 20,9 C 49 % 0,0 l/m 2,3 km/h (1 Bft) W-NW 292 9,8 C 22,2 C 1,8 km/h (1 Bft)
19.05.2012 18:19 20,8 C 49 % 0,0 l/m 1,4 km/h (1 Bft) W-NW 292 9,7 C 22,1 C 2,7 km/h (1 Bft)
19.05.2012 18:24 20,7 C 49 % 0,0 l/m 1,9 km/h (1 Bft) W-SW 247 9,6 C 21,9 C 5,5 km/h (1 Bft)
19.05.2012 18:29 20,7 C 49 % 0,0 l/m 1,9 km/h (1 Bft) N-NO 22 9,6 C 21,8 C 0,0 km/h (0 Bft)
19.05.2012 18:34 20,6 C 50 % 0,0 l/m 1,0 km/h (0 Bft) NW 315 9,8 C 22,1 C 2,1 km/h (1 Bft)
19.05.2012 18:39 20,6 C 50 % 0,0 l/m 0,5 km/h (0 Bft) W-NW 292 9,8 C 22,1 C 0,0 km/h (0 Bft)
19.05.2012 18:44 20,9 C 49 % 0,0 l/m 1,3 km/h (1 Bft) N-NW 337 9,8 C 22,2 C 2,1 km/h (1 Bft)
19.05.2012 18:49 21,3 C 49 % 0,0 l/m 1,4 km/h (1 Bft) S-SO 157 10,1 C 23,1 C 2,3 km/h (1 Bft)
19.05.2012 18:54 21,3 C 48 % 0,0 l/m 2,4 km/h (1 Bft) W-NW 292 9,8 C 24,6 C 4,2 km/h (1 Bft)
19.05.2012 18:59 21,2 C 49 % 0,0 l/m 2,7 km/h (1 Bft) W 270 10,1 C 24,2 C 3,1 km/h (1 Bft)
19.05.2012 19:04 21,1 C 52 % 0,0 l/m 2,3 km/h (1 Bft) S-SO 157 10,9 C 24,3 C 2,4 km/h (1 Bft)
19.05.2012 19:09 21,1 C 49 % 0,0 l/m 2,4 km/h (1 Bft) W-NW 292 10,0 C 24,7 C 2,7 km/h (1 Bft)
19.05.2012 19:14 21,1 C 50 % 0,0 l/m 2,6 km/h (1 Bft) W-NW 292 10,3 C 24,6 C 0,0 km/h (0 Bft)
19.05.2012 19:19 21,1 C 50 % 0,0 l/m 2,3 km/h (1 Bft) W-NW 292 10,3 C 24,6 C 4,5 km/h (1 Bft)
19.05.2012 19:24 20,9 C 51 % 0,0 l/m 2,1 km/h (1 Bft) W-NW 292 10,4 C 24,6 C 3,4 km/h (1 Bft)
19.05.2012 19:29 20,8 C 51 % 0,0 l/m 2,7 km/h (1 Bft) W-SW 247 10,3 C 24,6 C 5,0 km/h (1 Bft)
19.05.2012 19:34 20,5 C 52 % 0,0 l/m 2,3 km/h (1 Bft) W 270 10,3 C 24,5 C 3,2 km/h (1 Bft)
19.05.2012 19:39 20,3 C 51 % 0,0 l/m 2,1 km/h (1 Bft) W-SW 247 9,8 C 24,5 C 3,7 km/h (1 Bft)
19.05.2012 19:44 20,1 C 50 % 0,0 l/m 2,6 km/h (1 Bft) N-NO 22 9,3 C 24,0 C 3,1 km/h (1 Bft)
19.05.2012 19:49 19,9 C 51 % 0,0 l/m 2,9 km/h (1 Bft) N-NW 337 9,5 C 23,4 C 2,7 km/h (1 Bft)
19.05.2012 19:54 19,3 C 54 % 0,0 l/m 2,9 km/h (1 Bft) N-NW 337 9,8 C 22,7 C 4,2 km/h (1 Bft)
19.05.2012 19:59 19,1 C 53 % 0,0 l/m 1,9 km/h (1 Bft) N 360 9,3 C 22,3 C 1,8 km/h (1 Bft)
19.05.2012 20:04 18,9 C 53 % 0,0 l/m 0,8 km/h (0 Bft) N-NO 22 9,1 C 21,8 C 4,5 km/h (1 Bft)
19.05.2012 20:09 18,6 C 53 % 0,0 l/m 1,3 km/h (1 Bft) N 360 8,8 C 21,4 C 2,9 km/h (1 Bft)
19.05.2012 20:14 18,3 C 54 % 0,0 l/m 1,4 km/h (1 Bft) N-NO 22 8,8 C 20,6 C 2,6 km/h (1 Bft)
19.05.2012 20:19 18,2 C 54 % 0,0 l/m 1,0 km/h (0 Bft) N-NO 22 8,7 C 20,0 C 1,6 km/h (1 Bft)
19.05.2012 20:24 17,9 C 55 % 0,0 l/m 0,8 km/h (0 Bft) O 90 8,7 C 19,0 C 0,0 km/h (0 Bft)
19.05.2012 20:29 17,8 C 56 % 0,0 l/m 0,6 km/h (0 Bft) N-NO 22 8,9 C 18,6 C 1,9 km/h (1 Bft)
19.05.2012 20:34 17,5 C 57 % 0,0 l/m 0,5 km/h (0 Bft) N-NO 22 8,9 C 18,2 C 1,6 km/h (1 Bft)
19.05.2012 20:39 17,3 C 57 % 0,0 l/m 0,5 km/h (0 Bft) N-NO 22 8,7 C 18,0 C 0,0 km/h (0 Bft)
19.05.2012 20:44 17,0 C 58 % 0,0 l/m 0,5 km/h (0 Bft) N-NW 337 8,7 C 17,5 C 0,0 km/h (0 Bft)
19.05.2012 20:49 16,9 C 58 % 0,0 l/m 0,2 km/h (0 Bft) N-NO 22 8,6 C 17,1 C 0,0 km/h (0 Bft)
19.05.2012 20:54 16,8 C 58 % 0,0 l/m 0,0 km/h (0 Bft) N-NO 22 8,5 C 16,7 C 0,0 km/h (0 Bft)
19.05.2012 20:59 16,4 C 60 % 0,0 l/m 0,0 km/h (0 Bft) N-NO 22 8,6 C 16,4 C 0,0 km/h (0 Bft)
19.05.2012 21:04 15,8 C 61 % 0,0 l/m 0,0 km/h (0 Bft) W 270 8,3 C 16,0 C 0,0 km/h (0 Bft)
19.05.2012 21:09 15,2 C 62 % 0,0 l/m 0,0 km/h (0 Bft) W 270 8,0 C 15,7 C 0,0 km/h (0 Bft)
19.05.2012 21:14 15,0 C 64 % 0,0 l/m 0,0 km/h (0 Bft) N 360 8,2 C 15,3 C 0,0 km/h (0 Bft)
19.05.2012 21:19 15,1 C 64 % 0,0 l/m 0,0 km/h (0 Bft) N 360 8,3 C 15,0 C 0,0 km/h (0 Bft)
19.05.2012 21:24 14,5 C 66 % 0,0 l/m 0,0 km/h (0 Bft) N-NO 22 8,2 C 14,8 C 0,0 km/h (0 Bft)
19.05.2012 21:29 14,9 C 66 % 0,0 l/m 0,0 km/h (0 Bft) N-NO 22 8,6 C 14,7 C 0,0 km/h (0 Bft)
19.05.2012 21:34 14,5 C 67 % 0,0 l/m 0,0 km/h (0 Bft) N-NW 337 8,4 C 14,7 C 0,0 km/h (0 Bft)
19.05.2012 21:39 13,8 C 68 % 0,0 l/m 0,0 km/h (0 Bft) S-SO 157 8,0 C 14,4 C 0,0 km/h (0 Bft)
19.05.2012 21:44 14,6 C 67 % 0,0 l/m 0,2 km/h (0 Bft) N-NW 337 8,5 C 14,1 C 0,0 km/h (0 Bft)
19.05.2012 21:49 14,7 C 66 % 0,0 l/m 0,2 km/h (0 Bft) NO 45 8,4 C 14,1 C 0,0 km/h (0 Bft)
19.05.2012 21:54 13,5 C 69 % 0,0 l/m 0,5 km/h (0 Bft) NO 45 7,9 C 13,7 C 0,0 km/h (0 Bft)
19.05.2012 21:59 13,4 C 70 % 0,0 l/m 0,6 km/h (0 Bft) N-NO 22 8,0 C 13,4 C 0,0 km/h (0 Bft)
19.05.2012 22:04 12,6 C 71 % 0,0 l/m 0,2 km/h (0 Bft) N-NO 22 7,5 C 12,9 C 0,0 km/h (0 Bft)
19.05.2012 22:09 12,4 C 72 % 0,0 l/m 0,0 km/h (0 Bft) N-NO 22 7,5 C 12,6 C 0,0 km/h (0 Bft)
19.05.2012 22:14 13,4 C 72 % 0,0 l/m 0,3 km/h (0 Bft) N 360 8,5 C 12,6 C 0,0 km/h (0 Bft)
19.05.2012 22:19 12,9 C 73 % 0,0 l/m 0,3 km/h (0 Bft) N-NO 22 8,2 C 12,8 C 0,0 km/h (0 Bft)
19.05.2012 22:24 12,6 C 73 % 0,0 l/m 0,2 km/h (0 Bft) SW 225 7,9 C 12,7 C 0,0 km/h (0 Bft)
19.05.2012 22:29 12,3 C 73 % 0,0 l/m 0,2 km/h (0 Bft) W-NW 292 7,6 C 12,4 C 0,0 km/h (0 Bft)
19.05.2012 22:34 11,8 C 74 % 0,0 l/m 0,0 km/h (0 Bft) W-NW 292 7,3 C 12,0 C 0,0 km/h (0 Bft)
19.05.2012 22:39 11,8 C 75 % 0,0 l/m 0,0 km/h (0 Bft) N-NO 22 7,5 C 11,7 C 0,0 km/h (0 Bft)
19.05.2012 22:44 12,3 C 76 % 0,0 l/m 0,0 km/h (0 Bft) N-NO 22 8,2 C 11,7 C 0,0 km/h (0 Bft)
19.05.2012 22:49 12,5 C 75 % 0,0 l/m 0,0 km/h (0 Bft) NO 45 8,2 C 11,8 C 0,0 km/h (0 Bft)
19.05.2012 22:54 11,7 C 75 % 0,0 l/m 0,0 km/h (0 Bft) O-SO 112 7,4 C 11,7 C 0,0 km/h (0 Bft)
19.05.2012 22:59 11,2 C 76 % 0,0 l/m 0,0 km/h (0 Bft) O-SO 112 7,1 C 11,6 C 0,0 km/h (0 Bft)
19.05.2012 23:04 10,8 C 76 % 0,0 l/m 0,0 km/h (0 Bft) O-SO 112 6,7 C 11,4 C 0,0 km/h (0 Bft)
19.05.2012 23:08 10,8 C 76 % 0,0 l/m 0,0 km/h (0 Bft) O-SO 112 6,7 C 11,4 C 0,0 km/h (0 Bft)
19.05.2012 23:10 10,8 C 76 % 0,0 l/m 0,0 km/h (0 Bft) O-SO 112 6,7 C 11,4 C 0,0 km/h (0 Bft)
19.05.2012 23:19 10,9 C 81 % 0,0 l/m 0,2 km/h (0 Bft) W 270 7,8 C 10,9 C 0,0 km/h (0 Bft)
19.05.2012 23:20 10,9 C 81 % 0,0 l/m 0,2 km/h (0 Bft) W 270 7,8 C 10,9 C 0,0 km/h (0 Bft)
19.05.2012 23:30 10,3 C 80 % 0,0 l/m 0,0 km/h (0 Bft) N-NW 337 7,0 C 10,4 C 0,0 km/h (0 Bft)
19.05.2012 23:35 10,1 C 80 % 0,0 l/m 0,0 km/h (0 Bft) N-NW 337 6,8 C 10,2 C 0,0 km/h (0 Bft)
19.05.2012 23:40 10,2 C 83 % 0,0 l/m 0,0 km/h (0 Bft) N 360 7,4 C 10,0 C 0,0 km/h (0 Bft)
19.05.2012 23:45 10,3 C 82 % 0,0 l/m 0,0 km/h (0 Bft) N-NW 337 7,4 C 10,0 C 0,0 km/h (0 Bft)
19.05.2012 23:50 10,3 C 81 % 0,0 l/m 0,0 km/h (0 Bft) N 360 7,2 C 10,2 C 0,0 km/h (0 Bft)
19.05.2012 23:55 10,4 C 81 % 0,0 l/m 0,0 km/h (0 Bft) N 360 7,3 C 10,4 C 0,0 km/h (0 Bft)
_ Min-Zeit 06:25 16:14 - 23:55 - - 05:55 05:55 23:55
Minimum _ 5,7 C 37 % - 0,0 km/h (0 Bft) - - 3,5 C 5,9 C 0,0 km/h (0 Bft)
_ Max-Zeit 16:04 06:40 23:55 13:05 - - 19:04 16:19 12:05
Maximum _ 24,6 C 88 % 0,0 l/m 8,7 km/h
N (2 Bft)
- - 10,9 C 27,4 C 18,2 km/h
W-NW (3 Bft)
Durchschnitt _ 15,8 C 67 % #0,0 l/m 2,5 km/h (1 Bft) W-NW - 7,5 C 16,6 C 3,5 km/h (1 Bft)